Topeka Forbes, KS

6:37 PM CDT on June 23, 2017 (GMT -0500)
Forbes

Weather History for KFOE - February, 2013

Change the Weather History Date:

Sunday, February 17, 2013

  Actual Average Record
Temperature  
Mean Temperature 42 °F -  
Max Temperature 61 °F 44 °F 77 °F (2017)
Min Temperature 24 °F 22 °F -7 °F (1978)
Degree Days  
Heating Degree Days 22    
Moisture  
Dew Point 25 °F    
Average Humidity 51    
Maximum Humidity 75    
Minimum Humidity 32    
Precipitation  
Precipitation 0.00 in - - ()
Sea Level Pressure  
Sea Level Pressure 29.87 in    
Wind  
Wind Speed 9 mph (SSE)    
Max Wind Speed 20 mph    
Max Gust Speed 28 mph    
Visibility 10 miles    
Events      
Averages and records for this station are not official NWS values.
T = Trace of Precipitation, MM = Missing Value Source: NWS Daily Summary

Daily Weather History Graph

Daily Weather History Graph

Search for Another Location

Airport or City:

Trip Planner

Search our weather history database for the weather conditions in past years. The results will help you decide how hot, cold, wet, or windy it might be!

Date:

Astronomy

Feb. 17, 2013 Rise Set
Actual Time 7:11 AM CST 6:02 PM CST
Civil Twilight 6:43 AM CST 6:29 PM CST
Nautical Twilight 6:12 AM CST 7:01 PM CST
Astronomical Twilight 5:41 AM CST 7:31 PM CST
Moon 11:08 AM CST (2/17) 12:55 AM CST (2/17)
Length of Visible Light 11h 45m
Length of Day
10h 51m
Waxing Crescent, 49% of the Moon is Illuminated
Feb 17
Waxing Crescent
Feb 17
First Quarter
Feb 25
Full
Mar 4
Last Quarter
Mar 11
New

Hourly Weather History & Observations

Time (CST) Temp. Windchill Dew Point Humidity Pressure Visibility Wind Dir Wind Speed Gust Speed Precip Events Conditions
12:53 AM 30.9 °F 24.3 °F 16.0 °F 54% 30.05 in 10.0 mi South 6.9 mph - N/A   Clear
1:53 AM 28.9 °F 22.8 °F 16.0 °F 58% 30.05 in 10.0 mi South 5.8 mph - N/A   Clear
2:53 AM 28.0 °F 21.7 °F 17.1 °F 63% 30.04 in 10.0 mi SSE 5.8 mph - N/A   Clear
3:53 AM 26.1 °F 19.4 °F 17.1 °F 69% 30.02 in 10.0 mi SSE 5.8 mph - N/A   Clear
4:53 AM 26.1 °F 19.4 °F 17.1 °F 69% 30.01 in 10.0 mi South 5.8 mph - N/A   Clear
5:53 AM 24.1 °F 18.2 °F 17.1 °F 75% 30.02 in 10.0 mi SE 4.6 mph - N/A   Clear
6:53 AM 24.1 °F 17.0 °F 17.1 °F 75% 30.00 in 10.0 mi ESE 5.8 mph - N/A   Clear
7:53 AM 26.1 °F 19.4 °F 19.0 °F 75% 29.99 in 10.0 mi SE 5.8 mph - N/A   Clear
8:53 AM 32.0 °F 24.8 °F 19.9 °F 61% 29.98 in 10.0 mi SSE 8.1 mph - N/A   Clear
9:53 AM 39.0 °F 33.4 °F 23.0 °F 53% 29.96 in 10.0 mi SSE 8.1 mph - N/A   Clear
10:53 AM 45.0 °F 40.6 °F 26.1 °F 48% 29.94 in 10.0 mi SE 8.1 mph - N/A   Clear
11:53 AM 51.1 °F - 28.0 °F 41% 29.91 in 10.0 mi South 13.8 mph - N/A   Clear
12:53 PM 55.0 °F - 28.9 °F 37% 29.86 in 10.0 mi SSE 15.0 mph 18.4 mph N/A   Clear
1:53 PM 59.0 °F - 30.0 °F 33% 29.82 in 10.0 mi SSE 15.0 mph 20.7 mph N/A   Clear
2:53 PM 61.0 °F - 30.9 °F 32% 29.78 in 10.0 mi South 15.0 mph - N/A   Clear
3:53 PM 60.1 °F - 30.9 °F 33% 29.75 in 10.0 mi SSE 16.1 mph 23.0 mph N/A   Clear
4:53 PM 59.0 °F - 32.0 °F 36% 29.73 in 10.0 mi SE 15.0 mph - N/A   Clear
5:53 PM 54.0 °F - 33.1 °F 45% 29.73 in 10.0 mi SSE 12.7 mph - N/A   Clear
6:53 PM 53.1 °F - 33.1 °F 47% 29.71 in 10.0 mi SSE 13.8 mph - N/A   Clear
7:53 PM 51.1 °F - 33.1 °F 50% 29.69 in 10.0 mi SSE 13.8 mph - N/A   Clear
8:53 PM 53.1 °F - 33.1 °F 47% 29.67 in 10.0 mi SSE 16.1 mph 23.0 mph N/A   Clear
9:53 PM 54.0 °F - 32.0 °F 43% 29.65 in 10.0 mi South 12.7 mph 21.9 mph N/A   Clear
11:53 PM 55.0 °F - 30.0 °F 38% 29.62 in 10.0 mi South 19.6 mph 27.6 mph N/A   Clear